When you browse on this site, cookies collect data to enhance your experience and personalize the content and advertising you see.
Visit our Privacy Policy to learn more. By continuing to use the site, you agree to this use of cookies and data.
  • In Hungary
  • List of Countries
  • For 7 days
  • Water Temperature
  • Weather Map
  • News
  • Weather Widgets
  • user-avatar
    Login

    Hourly Weather Ormanshy

    Today, 8 December, Sunday

    Time Temperature Precipitation Wind Pressure Humidity
    00:00 +1°C° 0 mm 2 mps 652 mmHg 58%
    01:00 +1°C° 0 mm 2 mps 651 mmHg 58%
    02:00 0°C° 0 mm 3 mps 651 mmHg 57%
    03:00 0°C° 0 mm 3 mps 651 mmHg 56%
    04:00 0°C° 0 mm 3 mps 650 mmHg 56%
    05:00 0°C° 0 mm 3 mps 650 mmHg 55%
    06:00 0°C° 0 mm 3 mps 650 mmHg 54%
    07:00 0°C° 0 mm 3 mps 650 mmHg 54%
    08:00 0°C° 0 mm 3 mps 650 mmHg 53%
    09:00 +2°C° 0 mm 3 mps 650 mmHg 51%
    10:00 +5°C° 0 mm 2 mps 651 mmHg 50%
    11:00 +7°C° 0 mm 2 mps 651 mmHg 49%
    12:00 +7°C° 0 mm 2 mps 651 mmHg 48%
    13:00 +8°C° 0 mm 2 mps 650 mmHg 48%
    14:00 +9°C° 0 mm 2 mps 650 mmHg 48%
    15:00 +7°C° 0 mm 2 mps 649 mmHg 49%
    16:00 +6°C° 0 mm 2 mps 649 mmHg 51%
    17:00 +5°C° 0 mm 2 mps 648 mmHg 52%
    18:00 +4°C° 0 mm 2 mps 648 mmHg 50%
    19:00 +4°C° 0 mm 2 mps 647 mmHg 48%
    20:00 +4°C° 0 mm 2 mps 647 mmHg 46%
    21:00 +3°C° 0 mm 2 mps 647 mmHg 45%
    22:00 +3°C° 0 mm 2 mps 646 mmHg 44%
    23:00 +3°C° 0 mm 2 mps 646 mmHg 42%

    Tomorrow, 9 December, Monday

    Time Temperature Precipitation Wind Pressure Humidity
    00:00 +3°C° 0 mm 2 mps 646 mmHg 42%
    01:00 +3°C° 0 mm 2 mps 645 mmHg 41%
    02:00 +3°C° 0 mm 2 mps 645 mmHg 41%
    03:00 +3°C° 0 mm 2 mps 645 mmHg 40%
    04:00 +3°C° 0 mm 2 mps 644 mmHg 39%
    05:00 +3°C° 0 mm 2 mps 644 mmHg 39%
    06:00 +3°C° 0 mm 2 mps 644 mmHg 38%
    07:00 +3°C° 0 mm 2 mps 644 mmHg 38%
    08:00 +3°C° 0 mm 2 mps 644 mmHg 38%
    09:00 +4°C° 0 mm 2 mps 645 mmHg 38%
    10:00 +6°C° 0 mm 2 mps 645 mmHg 39%
    11:00 +7°C° 0 mm 2 mps 646 mmHg 40%
    12:00 +9°C° 0 mm 1 mps 646 mmHg 40%
    13:00 +9°C° 0 mm 1 mps 646 mmHg 41%
    14:00 +10°C° 0 mm 1 mps 645 mmHg 42%
    15:00 +9°C° 0 mm 1 mps 645 mmHg 42%
    16:00 +8°C° 0 mm 1 mps 645 mmHg 42%
    17:00 +6°C° 0 mm 1 mps 644 mmHg 42%
    18:00 +6°C° 0 mm 1 mps 645 mmHg 42%
    19:00 +6°C° 0 mm 1 mps 645 mmHg 41%
    20:00 +5°C° 0 mm 2 mps 645 mmHg 40%
    21:00 +5°C° 0 mm 2 mps 645 mmHg 40%
    22:00 +4°C° 0 mm 2 mps 645 mmHg 41%
    23:00 +4°C° 0 mm 2 mps 645 mmHg 41%

    Day after tomorrow, 10 December, Tuesday

    Time Temperature Precipitation Wind Pressure Humidity
    00:00 +4°C° 0 mm 2 mps 646 mmHg 41%
    01:00 +4°C° 0 mm 2 mps 646 mmHg 41%
    02:00 +3°C° 0 mm 3 mps 646 mmHg 41%
    03:00 +5°C° 0 mm 2 mps 646 mmHg 41%
    04:00 +5°C° 0 mm 2 mps 646 mmHg 41%
    05:00 +5°C° 0 mm 2 mps 646 mmHg 41%
    06:00 +5°C° 0 mm 2 mps 646 mmHg 48%
    07:00 +5°C° 0 mm 2 mps 647 mmHg 55%
    08:00 +4°C° 0 mm 3 mps 647 mmHg 61%
    09:00 +6°C° 0 mm 2 mps 647 mmHg 60%
    10:00 +7°C° 0 mm 2 mps 648 mmHg 59%
    11:00 +8°C° 0 mm 2 mps 648 mmHg 58%
    12:00 +9°C° 0 mm 1 mps 648 mmHg 57%
    13:00 +9°C° 0 mm 1 mps 648 mmHg 57%
    14:00 +9°C° 0 mm 1 mps 648 mmHg 57%
    15:00 +8°C° 0.1 mm 1 mps 648 mmHg 62%
    16:00 +7°C° 0.1 mm 1 mps 647 mmHg 67%
    17:00 +6°C° 0.1 mm 1 mps 647 mmHg 72%
    18:00 +6°C° 0.1 mm 1 mps 647 mmHg 74%
    19:00 +5°C° 0.1 mm 1 mps 647 mmHg 76%
    20:00 +5°C° 0.1 mm 1 mps 647 mmHg 78%
    21:00 +5°C° 0 mm 1 mps 647 mmHg 78%
    22:00 +4°C° 0 mm 1 mps 647 mmHg 78%
    23:00 +3°C° 0 mm 2 mps 647 mmHg 77%

    11 December, Wednesday

    Time Temperature Precipitation Wind Pressure Humidity
    00:00 +4°C° 0 mm 1 mps 647 mmHg 76%
    01:00 +4°C° 0 mm 1 mps 647 mmHg 75%
    02:00 +4°C° 0 mm 1 mps 646 mmHg 74%
    03:00 +4°C° 0 mm 1 mps 646 mmHg 74%
    04:00 +4°C° 0 mm 1 mps 646 mmHg 75%
    05:00 +3°C° 0 mm 1 mps 646 mmHg 75%
    06:00 +3°C° 0 mm 1 mps 646 mmHg 75%
    07:00 +3°C° 0 mm 1 mps 646 mmHg 74%
    08:00 +3°C° 0 mm 1 mps 646 mmHg 73%
    09:00 +4°C° 0 mm 1 mps 647 mmHg 71%
    10:00 +5°C° 0 mm 1 mps 647 mmHg 68%
    11:00 +5°C° 0 mm 0 mps 647 mmHg 65%
    12:00 +7°C° 0 mm 1 mps 647 mmHg 65%
    13:00 +7°C° 0 mm 1 mps 646 mmHg 66%
    14:00 +7°C° 0 mm 1 mps 646 mmHg 66%
    15:00 +6°C° 0 mm 1 mps 646 mmHg 70%
    16:00 +5°C° 0 mm 1 mps 645 mmHg 75%
    17:00 +4°C° 0 mm 1 mps 645 mmHg 79%
    18:00 +3°C° 0 mm 1 mps 644 mmHg 77%
    19:00 +2°C° 0 mm 2 mps 644 mmHg 76%
    20:00 +1°C° 0 mm 2 mps 644 mmHg 74%
    21:00 +1°C° 0 mm 2 mps 644 mmHg 72%
    22:00 +1°C° 0 mm 2 mps 644 mmHg 69%
    23:00 +2°C° 0 mm 1 mps 644 mmHg 67%

    12 December, Thursday

    Time Temperature Precipitation Wind Pressure Humidity
    00:00 +2°C° 0 mm 1 mps 644 mmHg 65%
    01:00 +2°C° 0 mm 1 mps 644 mmHg 64%
    02:00 +2°C° 0 mm 1 mps 643 mmHg 63%
    03:00 +2°C° 0 mm 1 mps 643 mmHg 63%
    04:00 +2°C° 0 mm 1 mps 643 mmHg 64%
    05:00 +2°C° 0 mm 1 mps 643 mmHg 64%
    06:00 +2°C° 0 mm 1 mps 643 mmHg 64%
    07:00 +2°C° 0 mm 1 mps 643 mmHg 63%
    08:00 +2°C° 0 mm 1 mps 644 mmHg 63%
    09:00 +3°C° 0 mm 1 mps 644 mmHg 62%
    10:00 +4°C° 0 mm 1 mps 644 mmHg 61%
    11:00 +5°C° 0 mm 1 mps 644 mmHg 60%
    12:00 +5°C° 0 mm 1 mps 644 mmHg 59%
    13:00 +5°C° 0 mm 0 mps 644 mmHg 58%
    14:00 +5°C° 0 mm 0 mps 644 mmHg 57%
    15:00 +5°C° 0 mm 1 mps 643 mmHg 63%
    16:00 +4°C° 0 mm 1 mps 643 mmHg 70%
    17:00 +3°C° 0 mm 1 mps 643 mmHg 76%
    18:00 +2°C° 0 mm 1 mps 643 mmHg 75%
    19:00 +2°C° 0 mm 1 mps 643 mmHg 75%
    20:00 +2°C° 0 mm 1 mps 643 mmHg 74%
    21:00 +1°C° 0 mm 1 mps 643 mmHg 72%
    22:00 +1°C° 0 mm 1 mps 643 mmHg 70%
    23:00 +1°C° 0 mm 1 mps 643 mmHg 67%

    13 December, Friday

    Time Temperature Precipitation Wind Pressure Humidity
    00:00 +1°C° 0 mm 1 mps 643 mmHg 68%
    01:00 +1°C° 0 mm 1 mps 643 mmHg 69%
    02:00 +1°C° 0 mm 1 mps 643 mmHg 70%
    03:00 +1°C° 0 mm 1 mps 643 mmHg 71%
    04:00 0°C° 0 mm 1 mps 643 mmHg 72%
    05:00 0°C° 0 mm 1 mps 643 mmHg 72%
    06:00 +1°C° 0 mm 1 mps 644 mmHg 71%
    07:00 +1°C° 0 mm 1 mps 644 mmHg 70%
    08:00 +1°C° 0 mm 1 mps 645 mmHg 69%
    09:00 +2°C° 0 mm 1 mps 645 mmHg 67%
    10:00 +3°C° 0 mm 1 mps 645 mmHg 66%
    11:00 +4°C° 0 mm 1 mps 646 mmHg 64%
    12:00 +4°C° 0 mm 1 mps 646 mmHg 66%
    13:00 +4°C° 0 mm 1 mps 646 mmHg 68%
    14:00 +4°C° 0 mm 1 mps 645 mmHg 70%
    15:00 +4°C° 0 mm 1 mps 645 mmHg 73%
    16:00 +3°C° 0 mm 1 mps 645 mmHg 76%
    17:00 +2°C° 0 mm 1 mps 646 mmHg 80%
    18:00 +2°C° 0 mm 1 mps 646 mmHg 78%
    19:00 +2°C° 0 mm 1 mps 646 mmHg 76%
    20:00 +1°C° 0 mm 1 mps 646 mmHg 75%
    21:00 -1°C° 0 mm 2 mps 646 mmHg 72%
    22:00 -1°C° 0 mm 2 mps 646 mmHg 70%
    23:00 -1°C° 0 mm 2 mps 646 mmHg 68%
    Show more